period_start,C,m1,H,J0,J1,J2,J3,J4,J5,JA,JB,JC,JD,JJ,JK,JN,#
2018-07-07 00:02:43,0.00,14.81,0.00,23.50,27.54,30.51,14.27,64.65,1022.98,2020.98,781.00,1177.99,1284.65,599.87,598.66,37.22,0000 0000 0000 0000 000000
2018-07-07 00:07:44,-0.01,14.81,0.00,23.50,27.52,30.52,14.26,64.74,1022.98,2020.96,781.00,1177.99,1284.67,599.97,598.69,37.27,0000 0000 0000 0000 000000
2018-07-07 00:12:45,-0.00,14.81,0.00,23.48,27.52,30.49,14.31,64.67,1022.98,2020.98,781.00,1177.99,1284.82,599.99,598.79,37.32,0000 0000 0000 0000 000000
2018-07-07 00:17:46,0.00,14.81,0.00,23.47,27.50,30.50,14.29,64.68,1022.97,2020.99,781.00,1177.99,1284.85,600.15,598.79,37.37,0000 0000 0000 0000 000000
2018-07-07 00:22:47,0.00,14.81,0.00,23.46,27.50,30.46,14.29,64.60,1022.99,2020.99,781.00,1177.99,1284.80,599.92,598.74,37.42,0000 0000 0000 0000 000000
2018-07-07 00:27:49,-0.01,14.81,0.00,23.46,27.48,30.48,14.30,64.58,1022.98,2020.99,781.00,1177.99,1284.87,599.88,598.73,37.47,0000 0000 0000 0000 000000
2018-07-07 00:32:50,-0.00,14.81,0.00,23.45,27.47,30.46,14.24,64.63,1022.96,2020.99,781.00,1177.99,1284.89,599.52,598.41,37.52,0000 0000 0000 0000 000000
2018-07-07 00:37:51,-0.00,14.81,0.00,23.45,27.47,30.47,14.27,64.69,1022.96,2020.99,781.00,1177.99,1284.91,599.87,598.81,37.57,0000 0000 0000 0000 000000
2018-07-07 00:42:52,0.00,14.81,0.00,23.45,27.45,30.45,14.24,64.65,1022.97,2020.99,781.00,1177.99,1284.89,599.88,598.70,37.62,0000 0000 0000 0000 000000
2018-07-07 00:47:53,-0.00,14.81,0.00,23.43,27.45,30.42,14.35,64.59,1022.99,2020.99,781.01,1177.99,1284.92,600.25,599.13,37.67,0000 0000 0000 0000 000000
2018-07-07 00:52:55,0.00,14.81,0.00,23.42,27.43,30.42,14.29,64.69,1023.00,2021.00,781.01,1177.99,1284.96,600.02,598.91,37.73,0000 0000 0000 0000 000000
2018-07-07 00:57:56,0.00,14.81,0.00,23.41,27.42,30.42,14.32,64.83,1022.99,2021.02,781.00,1177.99,1284.97,600.17,599.15,37.78,0000 0000 0000 0000 000000
2018-07-07 01:02:57,-0.00,14.81,0.00,23.41,27.41,30.41,14.31,64.72,1022.99,2021.00,781.01,1178.00,1284.94,600.36,599.18,37.83,0000 0000 0000 0000 000000
2018-07-07 01:07:58,0.01,14.81,0.00,23.41,27.40,30.40,14.26,64.76,1022.98,2021.03,781.01,1178.00,1284.94,600.08,599.07,37.88,0000 0000 0000 0000 000000
2018-07-07 01:13:00,-0.01,14.81,0.00,23.39,27.40,30.37,14.34,64.66,1022.98,2021.03,781.02,1178.00,1284.93,600.23,599.20,37.93,0000 0000 0000 0000 000000
2018-07-07 01:18:01,0.01,14.81,0.00,23.38,27.38,30.38,14.32,64.59,1022.99,2021.07,781.00,1178.00,1284.95,600.00,598.91,37.98,0000 0000 0000 0000 000000
2018-07-07 01:23:02,-0.00,14.81,0.00,23.37,27.37,30.33,14.31,64.58,1022.98,2021.11,781.00,1178.00,1284.97,600.22,599.30,38.03,0000 0000 0000 0000 000000
2018-07-07 01:28:04,0.01,14.81,0.00,23.37,27.37,30.34,14.23,64.61,1022.97,2021.18,781.00,1178.00,1284.96,599.65,598.61,38.08,0000 0000 0000 0000 000000
2018-07-07 01:33:05,0.03,14.81,0.00,23.36,27.35,30.34,14.26,64.65,1022.96,2021.36,781.00,1178.00,1284.94,599.82,599.01,38.13,0000 0000 0000 0000 000000
2018-07-07 01:38:06,0.06,14.82,0.00,23.35,27.35,30.34,14.30,64.66,1022.96,2021.61,781.00,1178.00,1284.94,599.96,599.14,38.18,0000 0000 0000 0000 000000
2018-07-07 01:43:07,0.02,14.82,0.00,23.34,27.34,30.32,14.33,64.77,1022.98,2021.74,781.00,1178.00,1284.92,600.16,599.20,38.23,0000 0000 0000 0000 000000
2018-07-07 01:48:08,-0.01,14.82,0.00,23.33,27.32,30.31,14.40,64.67,1023.03,2021.77,781.00,1178.00,1284.93,600.28,599.45,38.28,0000 0000 0000 0000 000000
2018-07-07 01:53:10,0.03,14.82,0.00,23.32,27.32,30.30,14.21,64.80,1023.02,2021.92,781.00,1178.00,1284.94,599.79,598.98,38.33,0000 0000 0000 0000 000000
2018-07-07 01:58:11,0.00,14.82,0.00,23.32,27.31,30.29,14.31,64.72,1023.00,2021.95,781.00,1178.00,1284.97,599.95,599.07,38.38,0000 0000 0000 0000 000000
2018-07-07 02:03:12,0.00,14.82,0.00,23.32,27.30,30.32,14.31,64.70,1022.99,2021.96,781.00,1178.00,1284.94,599.96,599.23,38.43,0000 0000 0000 0000 000000
2018-07-07 02:08:13,-0.00,14.82,0.00,23.31,27.30,30.29,14.31,64.72,1023.04,2021.99,781.00,1178.00,1284.94,600.16,599.21,38.48,0000 0000 0000 0000 000000
2018-07-07 02:13:15,0.00,14.82,0.00,23.31,27.29,30.27,14.39,64.72,1022.99,2021.98,781.00,1178.00,1284.95,600.27,599.39,38.53,0000 0000 0000 0000 000000
2018-07-07 02:18:16,0.00,14.82,0.00,23.30,27.27,30.26,14.27,64.64,1023.15,2021.98,781.00,1177.99,1284.94,599.87,599.17,38.58,0000 0000 0000 0000 000000
2018-07-07 02:23:17,-0.00,14.82,0.00,23.30,27.27,30.24,14.27,64.54,1023.15,2021.99,781.00,1177.99,1284.93,599.79,599.12,38.64,0000 0000 0000 0000 000000
2018-07-07 02:28:18,0.00,14.82,0.00,23.29,27.27,30.25,14.29,64.79,1023.01,2021.99,781.00,1177.99,1284.94,600.10,599.33,38.69,0000 0000 0000 0000 000000
2018-07-07 02:33:19,-0.00,14.82,0.00,23.29,27.25,30.25,14.35,64.79,1023.04,2021.99,781.00,1177.99,1284.94,600.17,599.28,38.74,0000 0000 0000 0000 000000
2018-07-07 02:38:20,0.00,14.82,0.00,23.28,27.25,30.23,14.29,64.63,1023.16,2021.99,781.00,1177.99,1284.94,600.03,599.25,38.79,0000 0000 0000 0000 000000
2018-07-07 02:43:22,0.00,14.82,0.00,23.28,27.25,30.22,14.25,64.66,1023.06,2021.99,781.00,1177.99,1284.93,600.20,599.39,38.84,0000 0000 0000 0000 000000
2018-07-07 02:48:23,-0.00,14.82,0.00,23.27,27.23,30.20,14.35,64.72,1023.27,2021.99,781.00,1177.99,1284.94,600.14,599.55,38.89,0000 0000 0000 0000 000000
2018-07-07 02:53:24,-0.00,14.82,0.00,23.27,27.22,30.20,14.34,64.66,1023.42,2021.99,781.00,1177.99,1284.96,600.25,599.68,38.94,0000 0000 0000 0000 000000
2018-07-07 02:58:25,-0.00,14.82,0.00,23.27,27.22,30.22,14.32,64.65,1023.44,2021.99,781.00,1177.99,1284.97,600.12,599.58,38.99,0000 0000 0000 0000 000000
2018-07-07 03:03:27,0.00,14.82,0.00,23.27,27.21,30.22,14.31,64.59,1023.45,2021.99,781.00,1177.99,1284.99,600.01,599.47,39.04,0000 0000 0000 0000 000000
2018-07-07 03:08:28,0.00,14.82,0.00,23.25,27.20,30.18,14.28,64.75,1023.45,2021.99,780.99,1177.99,1284.98,600.06,599.66,39.09,0000 0000 0000 0000 000000
2018-07-07 03:13:29,0.00,14.82,0.00,23.24,27.20,30.19,14.26,64.60,1023.45,2022.00,780.99,1177.99,1284.98,600.08,599.64,39.14,0000 0000 0000 0000 000000
2018-07-07 03:18:30,-0.00,14.82,0.00,23.24,27.20,30.17,14.28,64.61,1023.45,2022.00,780.99,1178.00,1284.97,599.92,599.32,39.19,0000 0000 0000 0000 000000
2018-07-07 03:23:32,-0.00,14.82,0.00,23.24,27.18,30.15,14.33,64.64,1023.45,2022.01,780.99,1178.00,1284.97,600.00,599.63,39.24,0000 0000 0000 0000 000000
2018-07-07 03:28:33,-0.00,14.82,0.00,23.23,27.17,30.17,14.33,64.73,1023.45,2022.00,780.99,1178.00,1284.98,600.06,599.66,39.29,0000 0000 0000 0000 000000
2018-07-07 03:33:35,0.00,14.82,0.00,23.24,27.17,30.12,14.33,64.73,1023.45,2022.02,780.99,1178.00,1284.99,600.31,599.94,39.34,0000 0000 0000 0000 000000
2018-07-07 03:38:36,-0.00,14.82,0.00,23.22,27.16,30.12,14.28,64.71,1023.45,2022.02,780.99,1178.00,1284.99,600.21,599.78,39.39,0000 0000 0000 0000 000000
2018-07-07 03:43:37,0.01,14.82,0.00,23.22,27.15,30.14,14.37,64.79,1023.45,2022.05,780.99,1178.00,1284.99,599.74,599.39,39.44,0000 0000 0000 0000 000000
2018-07-07 03:48:38,-0.00,14.82,0.00,23.21,27.15,30.14,14.25,64.73,1023.45,2022.06,780.99,1178.01,1284.99,599.94,599.59,39.50,0000 0000 0000 0000 000000
2018-07-07 03:53:40,0.01,14.82,0.00,23.20,27.15,30.10,14.29,64.63,1023.45,2022.06,780.99,1178.01,1284.99,599.97,599.61,39.55,0000 0000 0000 0000 000000
2018-07-07 03:58:41,0.01,14.82,0.00,23.21,27.13,30.10,14.27,64.66,1023.45,2022.07,780.99,1178.01,1284.99,599.97,599.51,39.60,0000 0000 0000 0000 000000
2018-07-07 04:03:42,0.03,14.82,0.00,23.21,27.12,30.10,14.28,64.57,1023.45,2022.27,780.99,1178.02,1284.99,599.68,599.37,39.65,0000 0000 0000 0000 000000
2018-07-07 04:08:43,-0.01,14.82,0.00,23.19,27.12,30.09,14.31,64.60,1023.45,2022.32,780.99,1178.03,1284.99,600.09,599.82,39.70,0000 0000 0000 0000 000000
2018-07-07 04:13:44,-0.01,14.82,0.00,23.20,27.12,30.09,14.28,64.68,1023.45,2022.20,780.99,1178.03,1284.99,599.82,599.47,39.75,0000 0000 0000 0000 000000
2018-07-07 04:18:46,0.03,14.82,0.00,23.19,27.11,30.09,14.30,64.55,1023.46,2022.38,780.99,1178.04,1284.99,599.99,599.77,39.80,0000 0000 0000 0000 000000
2018-07-07 04:23:47,-0.00,14.82,0.00,23.18,27.10,30.07,14.32,64.63,1023.45,2022.48,780.99,1178.03,1284.99,599.72,599.44,39.85,0000 0000 0000 0000 000000
2018-07-07 04:28:48,0.07,14.83,0.00,23.17,27.10,30.06,14.32,64.59,1023.45,2022.81,780.99,1178.02,1284.99,599.90,599.59,39.90,0000 0000 0000 0000 000000
2018-07-07 04:33:50,0.00,14.83,0.00,23.17,27.10,30.06,14.28,64.50,1023.45,2022.85,780.99,1178.01,1284.99,600.06,599.80,39.95,0000 0000 0000 0000 000000
2018-07-07 04:38:51,0.05,14.83,0.00,23.17,27.08,30.06,14.35,64.48,1023.45,2022.95,780.85,1178.01,1284.98,600.15,599.74,40.00,0000 0000 0000 0000 000000
2018-07-07 04:43:52,0.05,14.83,0.00,23.16,27.07,30.06,14.33,64.61,1023.44,2022.97,780.47,1178.00,1284.99,600.07,599.60,40.05,0000 0000 0000 0000 000000
2018-07-07 04:48:53,0.03,14.84,0.00,23.16,27.07,30.06,14.34,64.63,1023.40,2022.96,780.16,1178.00,1284.98,600.39,600.07,40.10,0000 0000 0000 0000 000000
2018-07-07 04:53:54,0.03,14.84,0.00,23.15,27.07,30.03,14.33,64.63,1023.42,2022.98,780.06,1178.00,1284.94,600.06,599.69,40.15,0000 0000 0000 0000 000000
2018-07-07 04:58:55,0.07,14.84,0.00,23.14,27.05,30.05,14.28,64.64,1023.38,2022.98,780.00,1177.94,1284.34,599.85,599.64,40.20,0000 0000 0000 0000 000000
2018-07-07 05:03:57,0.08,14.84,0.00,23.14,27.05,30.04,14.22,64.46,1023.18,2022.99,779.97,1177.50,1284.02,599.83,599.49,40.25,0000 0000 0000 0000 000000
2018-07-07 05:08:58,0.02,14.85,0.00,23.13,27.05,30.01,14.31,64.48,1023.07,2022.99,779.96,1177.17,1284.00,600.02,599.67,40.30,0000 0000 0000 0000 000000
2018-07-07 05:13:59,0.00,14.85,0.00,23.12,27.04,30.01,14.27,64.64,1022.98,2022.99,779.96,1177.12,1284.00,599.83,599.30,40.35,0000 0000 0000 0000 000000
2018-07-07 05:19:00,0.02,14.85,0.00,23.12,27.02,30.02,14.28,64.62,1022.98,2022.99,779.90,1177.05,1284.00,599.85,599.37,40.40,0000 0000 0000 0000 000000
2018-07-07 05:24:01,0.06,14.85,0.00,23.11,27.02,29.99,14.24,64.55,1022.96,2022.99,779.55,1177.02,1284.00,599.86,599.44,40.46,0000 0000 0000 0000 000000
2018-07-07 05:29:02,0.05,14.85,0.00,23.11,27.02,29.97,14.30,64.53,1022.95,2022.99,779.27,1177.01,1283.99,599.96,599.58,40.51,0000 0000 0000 0000 000000
2018-07-07 05:34:04,0.03,14.85,0.00,23.10,27.01,29.97,14.34,64.65,1022.94,2022.99,779.02,1177.00,1283.95,600.13,599.65,40.56,0000 0000 0000 0000 000000
2018-07-07 05:39:05,-0.00,14.85,0.00,23.10,27.00,29.99,14.28,64.67,1022.96,2023.00,779.01,1177.00,1283.94,599.94,599.35,40.61,0000 0000 0000 0000 000000
2018-07-07 05:44:06,0.01,14.86,0.00,23.10,27.00,29.97,14.31,64.67,1022.96,2023.00,779.00,1177.00,1283.70,600.19,599.65,40.66,0000 0000 0000 0000 000000
2018-07-07 05:49:07,0.02,14.86,0.00,23.07,26.99,29.95,14.23,64.63,1022.96,2023.00,779.00,1176.99,1283.52,599.86,599.48,40.71,0000 0000 0000 0000 000000
2018-07-07 05:54:09,0.01,14.86,0.00,23.07,26.97,29.95,14.30,64.71,1022.96,2023.01,779.00,1176.98,1283.15,599.83,599.41,40.76,0000 0000 0000 0000 000000
2018-07-07 05:59:10,0.05,14.86,0.00,23.07,26.97,29.94,14.24,64.74,1022.96,2023.02,778.98,1176.82,1283.02,599.88,599.50,40.81,0000 0000 0000 0000 000000
2018-07-07 06:04:11,0.08,14.86,0.00,23.07,26.97,29.93,14.30,64.67,1022.96,2023.04,778.90,1176.18,1283.00,600.03,599.65,40.86,0000 0000 0000 0000 000000
2018-07-07 06:09:12,0.03,14.87,0.00,23.06,26.96,29.93,14.26,64.61,1022.97,2023.02,778.75,1176.05,1283.00,599.62,599.30,40.91,0000 0000 0000 0000 000000
2018-07-07 06:14:14,0.06,14.87,0.00,23.06,26.95,29.93,14.26,64.58,1022.96,2023.01,778.33,1176.02,1282.99,599.91,599.62,40.96,0000 0000 0000 0000 000000
2018-07-07 06:19:15,0.06,14.87,0.00,23.05,26.95,29.91,14.26,64.58,1022.96,2023.04,778.05,1176.00,1282.99,599.84,599.57,41.01,0000 0000 0000 0000 000000
2018-07-07 06:24:16,0.01,14.87,0.00,23.03,26.95,29.92,14.28,64.45,1022.96,2023.04,778.01,1176.00,1282.96,599.80,599.42,41.06,0000 0000 0000 0000 000000
2018-07-07 06:29:17,0.02,14.87,0.00,23.02,26.92,29.89,14.31,64.56,1022.96,2023.09,778.00,1176.00,1282.75,600.02,599.73,41.11,0000 0000 0000 0000 000000
2018-07-07 06:34:19,0.09,14.88,0.00,23.01,26.92,29.93,14.32,64.55,1022.96,2023.25,777.99,1175.97,1282.08,599.95,599.70,41.16,0000 0000 0000 0000 000000
2018-07-07 06:39:20,0.03,14.88,0.00,23.00,26.92,29.89,14.27,64.63,1022.96,2023.43,777.98,1175.96,1282.02,599.95,599.70,41.21,0000 0000 0000 0000 000000
2018-07-07 06:44:21,0.02,14.88,0.00,22.99,26.91,29.85,14.27,64.72,1022.96,2023.60,777.98,1175.95,1282.02,599.90,599.63,41.26,0000 0000 0000 0000 000000
2018-07-07 06:49:22,0.09,14.88,0.00,22.99,26.90,29.90,14.28,64.77,1022.96,2023.71,777.87,1175.74,1282.01,599.95,599.89,41.31,0000 0000 0000 0000 000000
2018-07-07 06:54:23,0.01,14.89,0.00,22.97,26.90,29.89,14.32,64.80,1022.96,2023.94,777.87,1175.77,1282.01,599.94,599.66,41.37,0000 0000 0000 0000 000000
2018-07-07 06:59:24,0.06,14.89,0.00,22.96,26.89,29.86,14.31,64.70,1022.85,2023.95,777.70,1175.67,1282.00,600.07,599.77,41.42,0000 0000 0000 0000 000000
2018-07-07 07:04:26,0.16,14.90,0.00,22.95,26.87,29.87,14.27,64.61,1022.58,2023.98,777.08,1175.14,1282.00,599.89,599.50,41.47,0000 0000 0000 0000 000000
2018-07-07 07:09:27,0.00,14.90,0.00,22.94,26.87,29.87,14.26,64.92,1022.60,2023.96,777.00,1175.02,1281.98,600.12,599.71,41.52,0000 0000 0000 0000 000000
2018-07-07 07:14:28,0.01,14.90,0.00,22.94,26.87,29.87,14.29,64.72,1022.68,2023.96,777.00,1175.00,1281.96,600.01,599.69,41.57,0000 0000 0000 0000 000000
2018-07-07 07:19:30,0.01,14.90,0.00,22.92,26.85,29.87,14.36,64.84,1022.59,2023.98,777.00,1175.00,1281.87,599.98,599.65,41.62,0000 0000 0000 0000 000000
2018-07-07 07:24:31,0.02,14.90,0.00,22.92,26.85,29.85,14.35,64.90,1022.52,2023.99,776.98,1175.00,1281.58,600.15,599.71,41.67,0000 0000 0000 0000 000000
2018-07-07 07:29:32,0.14,14.90,0.00,22.90,26.85,29.84,14.33,64.80,1022.60,2023.99,776.61,1175.00,1281.21,600.02,599.89,41.72,0000 0000 0000 0000 000000
2018-07-07 07:34:33,0.06,14.91,0.00,22.90,26.83,29.83,14.31,64.83,1022.58,2023.98,776.05,1174.97,1281.01,599.94,599.70,41.77,0000 0000 0000 0000 000000
2018-07-07 07:39:35,-0.00,14.91,0.00,22.90,26.82,29.83,14.33,64.91,1022.55,2023.99,776.02,1174.97,1281.02,600.28,599.96,41.82,0000 0000 0000 0000 000000
2018-07-07 07:44:36,-0.00,14.91,0.00,22.88,26.82,29.84,14.31,65.03,1022.68,2023.99,776.02,1174.98,1281.01,599.92,599.78,41.87,0000 0000 0000 0000 000000
2018-07-07 07:49:37,0.00,14.91,0.00,22.87,26.81,29.79,14.32,65.03,1022.84,2023.99,776.01,1174.98,1281.02,599.82,599.75,41.92,0000 0000 0000 0000 000000
2018-07-07 07:54:38,0.01,14.91,0.00,22.86,26.80,29.79,14.36,65.03,1022.81,2023.99,776.00,1174.97,1281.01,599.84,599.85,41.97,0000 0000 0000 0000 000000
2018-07-07 07:59:39,-0.00,14.91,0.00,22.84,26.80,29.79,14.26,64.91,1022.69,2023.99,776.00,1174.97,1281.00,599.71,599.62,42.02,0000 0000 0000 0000 000000
2018-07-07 08:04:40,0.00,14.91,0.00,22.83,26.78,29.79,14.28,64.98,1022.53,2023.99,775.99,1174.98,1281.00,600.10,599.85,42.07,0000 0000 0000 0000 000000
2018-07-07 08:09:41,0.00,14.91,0.00,22.82,26.77,29.73,14.29,64.99,1022.49,2023.99,775.99,1174.98,1281.02,599.81,599.74,42.12,0000 0000 0000 0000 000000
2018-07-07 08:14:43,0.01,14.91,0.00,22.80,26.77,29.72,14.31,65.03,1022.48,2024.00,775.98,1174.97,1281.00,599.84,599.67,42.17,0000 0000 0000 0000 000000
2018-07-07 08:19:44,-0.01,14.91,0.00,22.80,26.75,29.78,14.33,64.97,1022.48,2024.01,775.98,1174.98,1281.02,599.86,599.73,42.23,0000 0000 0000 0000 000000
2018-07-07 08:24:45,0.01,14.91,0.00,22.79,26.75,29.76,14.32,65.06,1022.49,2024.02,775.96,1174.98,1281.01,599.76,599.69,42.28,0000 0000 0000 0000 000000
2018-07-07 08:29:46,0.00,14.91,0.00,22.79,26.74,29.75,14.28,65.00,1022.48,2024.04,775.95,1174.98,1281.00,599.86,599.81,42.33,0000 0000 0000 0000 000000
2018-07-07 08:34:48,0.01,14.91,0.00,22.77,26.72,29.75,14.29,64.90,1022.49,2024.07,775.95,1174.98,1281.01,599.94,599.82,42.38,0000 0000 0000 0000 000000
2018-07-07 08:39:49,0.02,14.91,0.00,22.76,26.72,29.72,14.26,64.89,1022.56,2024.10,775.86,1174.98,1281.01,599.97,599.99,42.43,0000 0000 0000 0000 000000
2018-07-07 08:44:50,0.09,14.92,0.00,22.75,26.71,29.70,14.32,64.99,1022.65,2024.26,775.66,1174.97,1281.00,599.86,599.90,42.48,0000 0000 0000 0000 000000
2018-07-07 08:49:51,0.04,14.92,0.00,22.75,26.70,29.69,14.28,64.97,1022.82,2024.41,775.54,1174.98,1281.01,599.92,600.25,42.53,0000 0000 0000 0000 000000
2018-07-07 08:54:53,0.04,14.92,0.00,22.74,26.70,29.69,14.32,64.96,1022.67,2024.51,775.39,1174.98,1281.01,599.92,600.08,42.58,0000 0000 0000 0000 000000
2018-07-07 08:59:54,0.06,14.92,0.00,22.72,26.67,29.70,14.30,65.13,1022.49,2024.64,775.17,1174.99,1281.01,600.01,600.05,42.63,0000 0000 0000 0000 000000
2018-07-07 09:04:55,0.03,14.93,0.00,22.71,26.67,29.69,14.26,65.08,1022.49,2024.81,775.07,1174.99,1281.03,599.73,599.73,42.68,0000 0000 0000 0000 000000
2018-07-07 09:09:57,0.02,14.93,0.00,22.70,26.66,29.65,14.32,65.11,1022.48,2024.90,775.03,1174.99,1281.03,600.13,600.08,42.73,0000 0000 0000 0000 000000
2018-07-07 09:14:58,0.01,14.93,0.00,22.70,26.65,29.67,14.34,65.17,1022.48,2024.96,775.01,1174.99,1281.03,600.19,600.25,42.78,0000 0000 0000 0000 000000
2018-07-07 09:19:59,-0.00,14.93,0.00,22.68,26.64,29.66,14.30,65.17,1022.46,2024.97,775.00,1174.98,1281.02,599.90,600.00,42.83,0000 0000 0000 0000 000000
2018-07-07 09:25:00,-0.00,14.93,0.00,22.66,26.62,29.63,14.30,65.20,1022.45,2024.98,775.00,1174.98,1281.00,599.92,600.02,42.88,0000 0000 0000 0000 000000
2018-07-07 09:30:02,0.01,14.93,0.00,22.65,26.62,29.63,14.29,65.18,1022.41,2024.98,774.98,1174.92,1281.00,600.00,600.07,42.93,0000 0000 0000 0000 000000
2018-07-07 09:35:03,0.20,14.93,0.00,22.65,26.61,29.64,14.37,65.33,1022.15,2024.99,774.50,1174.34,1280.99,600.07,600.09,42.98,0000 0000 0000 0000 000000
2018-07-07 09:40:05,0.01,14.94,0.00,22.64,26.60,29.59,14.34,65.15,1022.02,2024.99,774.14,1174.35,1280.98,600.08,600.09,43.03,0000 0000 0000 0000 000000
2018-07-07 09:45:06,0.03,14.94,0.00,22.63,26.59,29.62,14.37,65.44,1021.99,2024.99,774.07,1174.25,1280.98,600.29,600.24,43.08,0000 0000 0000 0000 000000
2018-07-07 09:50:07,0.02,14.94,0.00,22.62,26.57,29.61,14.32,65.24,1021.98,2024.99,774.03,1174.16,1280.97,599.85,599.98,43.13,0000 0000 0000 0000 000000
2018-07-07 09:55:08,0.00,14.94,0.00,22.61,26.57,29.59,14.27,65.31,1021.87,2024.99,774.01,1174.09,1280.96,599.89,599.78,43.19,0000 0000 0000 0000 000000
2018-07-07 10:00:10,0.00,14.94,0.00,22.60,26.56,29.57,14.38,65.28,1021.94,2025.00,774.00,1174.09,1280.96,600.16,600.14,43.24,0000 0000 0000 0000 000000
2018-07-07 10:05:11,0.01,14.94,0.00,22.60,26.55,29.58,14.31,65.28,1021.99,2025.00,774.00,1174.05,1280.91,599.65,599.69,43.29,0000 0000 0000 0000 000000
2018-07-07 10:10:12,0.01,14.94,0.00,22.59,26.55,29.57,14.38,65.35,1021.96,2025.00,773.99,1174.03,1280.84,600.43,600.32,43.34,0000 0000 0000 0000 000000
2018-07-07 10:15:14,-0.00,14.94,0.00,22.57,26.52,29.53,14.34,65.17,1021.96,2025.00,773.99,1174.04,1280.90,599.97,599.97,43.39,0000 0000 0000 0000 000000
2018-07-07 10:20:15,-0.01,14.94,0.00,22.57,26.52,29.52,14.29,65.17,1021.99,2025.02,773.98,1174.09,1280.96,599.89,600.01,43.44,0000 0000 0000 0000 000000
2018-07-07 10:25:16,-0.01,14.94,0.00,22.55,26.51,29.53,14.39,65.28,1021.99,2025.04,773.99,1174.22,1280.97,600.17,600.17,43.49,0000 0000 0000 0000 000000
2018-07-07 10:30:17,-0.01,14.94,0.00,22.54,26.50,29.51,14.35,65.24,1021.99,2025.09,773.99,1174.46,1280.98,600.17,600.16,43.54,0000 0000 0000 0000 000000
2018-07-07 10:35:19,-0.01,14.94,0.00,22.53,26.49,29.50,14.31,65.33,1021.98,2025.13,773.99,1174.55,1280.97,599.93,600.07,43.59,0000 0000 0000 0000 000000
2018-07-07 10:40:20,0.02,14.94,0.00,22.52,26.47,29.47,14.36,65.30,1021.61,2025.18,773.96,1174.58,1280.98,599.99,600.02,43.64,0000 0000 0000 0000 000000
2018-07-07 10:45:21,0.00,14.94,0.00,22.50,26.47,29.46,14.30,65.40,1021.51,2025.18,773.95,1174.50,1280.97,600.07,599.89,43.69,0000 0000 0000 0000 000000
2018-07-07 10:50:23,0.06,14.94,0.00,22.49,26.46,29.47,14.35,65.28,1021.52,2025.66,773.95,1174.84,1280.98,599.93,600.01,43.74,0000 0000 0000 0000 000000
2018-07-07 10:55:24,0.02,14.94,0.00,22.48,26.45,29.46,14.32,65.09,1021.50,2025.89,773.93,1174.94,1280.99,600.08,600.08,43.79,0000 0000 0000 0000 000000
2018-07-07 11:00:25,0.08,14.95,0.00,22.47,26.44,29.44,14.29,65.23,1021.50,2025.95,773.61,1174.90,1280.99,600.17,600.09,43.84,0000 0000 0000 0000 000000
2018-07-07 11:05:27,0.04,14.95,0.00,22.45,26.42,29.44,14.31,65.26,1021.50,2025.98,773.26,1174.90,1280.99,599.70,599.75,43.89,0000 0000 0000 0000 000000
2018-07-07 11:10:28,0.01,14.95,0.00,22.44,26.42,29.41,14.29,65.17,1021.49,2025.97,773.12,1174.92,1280.98,599.82,599.88,43.94,0000 0000 0000 0000 000000
2018-07-07 11:15:29,0.01,14.95,0.00,22.44,26.40,29.43,14.35,65.16,1021.48,2025.98,773.08,1174.97,1280.99,600.08,600.10,43.99,0000 0000 0000 0000 000000
2018-07-07 11:20:31,-0.00,14.95,0.00,22.43,26.40,29.42,14.33,65.14,1021.28,2025.99,773.04,1174.97,1280.99,599.97,599.80,44.05,0000 0000 0000 0000 000000
2018-07-07 11:25:32,0.00,14.95,0.00,22.42,26.38,29.42,14.28,65.07,1021.07,2025.99,773.02,1174.99,1280.99,599.87,599.59,44.10,0000 0000 0000 0000 000000
2018-07-07 11:30:33,0.00,14.95,0.00,22.40,26.37,29.38,14.30,65.28,1021.04,2025.99,773.03,1174.98,1280.99,600.04,599.98,44.15,0000 0000 0000 0000 000000
2018-07-07 11:35:34,-0.01,14.95,0.00,22.40,26.36,29.39,14.36,65.21,1021.01,2025.99,773.01,1174.98,1280.99,599.97,599.83,44.20,0000 0000 0000 0000 000000
2018-07-07 11:40:36,0.00,14.95,0.00,22.38,26.35,29.35,14.30,65.31,1021.03,2025.99,773.01,1174.98,1280.99,600.06,599.92,44.25,0000 0000 0000 0000 000000
2018-07-07 11:45:37,-0.00,14.95,0.00,22.37,26.34,29.35,14.30,65.17,1021.36,2025.99,773.01,1174.99,1280.99,599.94,599.97,44.30,0000 0000 0000 0000 000000
2018-07-07 11:50:38,0.00,14.95,0.00,22.35,26.32,29.36,14.35,65.08,1021.09,2026.00,773.00,1174.99,1280.99,599.92,599.92,44.35,0000 0000 0000 0000 000000
2018-07-07 11:55:39,0.00,14.95,0.00,22.35,26.32,29.37,14.32,65.10,1021.03,2026.00,773.00,1174.99,1280.99,600.06,600.02,44.40,0000 0000 0000 0000 000000
2018-07-07 12:00:40,0.01,14.95,0.00,22.33,26.30,29.35,14.31,65.14,1021.03,2026.02,773.00,1174.99,1281.00,600.03,599.92,44.45,0000 0000 0000 0000 000000
2018-07-07 12:05:42,0.00,14.95,0.00,22.32,26.30,29.34,14.36,65.13,1021.07,2026.01,773.00,1174.99,1281.00,600.07,600.06,44.50,0000 0000 0000 0000 000000
2018-07-07 12:10:43,-0.00,14.95,0.00,22.31,26.28,29.30,14.27,65.22,1021.02,2026.01,773.00,1174.99,1281.00,599.86,599.81,44.55,0000 0000 0000 0000 000000
2018-07-07 12:15:44,0.00,14.95,0.00,22.30,26.27,29.27,14.38,65.34,1020.95,2026.03,773.00,1174.99,1281.00,600.13,600.15,44.60,0000 0000 0000 0000 000000
2018-07-07 12:20:46,-0.00,14.95,0.00,22.29,26.27,29.30,14.38,65.35,1021.00,2026.05,773.00,1174.99,1281.00,600.12,600.10,44.65,0000 0000 0000 0000 000000
2018-07-07 12:25:47,0.01,14.95,0.00,22.28,26.25,29.27,14.35,65.34,1021.00,2026.09,773.00,1175.00,1281.03,600.28,600.33,44.70,0000 0000 0000 0000 000000
2018-07-07 12:30:48,0.03,14.96,0.00,22.27,26.24,29.29,14.29,65.28,1020.94,2026.20,773.00,1175.00,1281.01,599.94,599.93,44.75,0000 0000 0000 0000 000000
2018-07-07 12:35:50,0.04,14.96,0.00,22.26,26.22,29.24,14.39,65.23,1021.01,2026.52,773.00,1175.01,1281.05,600.12,600.15,44.80,0000 0000 0000 0000 000000
2018-07-07 12:40:51,0.04,14.96,0.00,22.25,26.22,29.23,14.34,65.16,1021.01,2026.67,773.00,1175.01,1281.07,599.78,599.74,44.85,0000 0000 0000 0000 000000
2018-07-07 12:45:53,0.01,14.96,0.00,22.23,26.20,29.26,14.31,65.31,1020.93,2026.84,773.00,1175.03,1281.11,599.94,600.00,44.90,0000 0000 0000 0000 000000
2018-07-07 12:50:53,0.01,14.96,0.00,22.21,26.20,29.25,14.29,65.21,1020.55,2026.92,772.99,1175.01,1281.15,599.75,599.75,44.95,0000 0000 0000 0000 000000
2018-07-07 12:55:55,-0.00,14.96,0.00,22.20,26.18,29.21,14.37,65.31,1020.52,2026.95,772.99,1175.04,1281.18,600.03,600.05,45.01,0000 0000 0000 0000 000000